This is the latest recevied weather packets stored in our database for station/object JF2ZGN-13. If no packets are shown the sender has not sent any weather packets the latest 10 day(s).
| Time | Temp. | Humidity | Pressure | Rain* | Wind** | Luminosity | Snow |
|---|---|---|---|---|---|---|---|
| 1777935384 | 10.56° C | 54% | 909.3 hPa | 0 mm | - | - | - |
| 1777934784 | 10.56° C | 49% | 909.2 hPa | 0 mm | - | - | - |
| 1777934183 | 10° C | 54% | 909 hPa | 0 mm | - | - | - |
| 1777933583 | 9.44° C | 54% | 908.7 hPa | 0 mm | - | - | - |
| 1777932982 | 8.89° C | 55% | 908.5 hPa | 0 mm | - | - | - |
| 1777932382 | 8.33° C | 58% | 908.4 hPa | 0 mm | - | - | - |
| 1777931781 | 8.33° C | 57% | 908.2 hPa | 0 mm | - | - | - |
| 1777931181 | 7.78° C | 55% | 908.1 hPa | 0 mm | - | - | - |
| 1777930580 | 7.78° C | 55% | 908 hPa | 0 mm | - | - | - |
| 1777929980 | 7.78° C | 56% | 907.8 hPa | 0 mm | - | - | - |
| 1777929379 | 7.22° C | 56% | 907.6 hPa | 0 mm | - | - | - |
| 1777928779 | 7.22° C | 58% | 907.4 hPa | 0 mm | - | - | - |
| 1777928179 | 7.22° C | 59% | 907.1 hPa | 0 mm | - | - | - |
| 1777927578 | 6.67° C | 60% | 906.7 hPa | 0 mm | - | - | - |
| 1777926977 | 6.67° C | 59% | 906.5 hPa | 0 mm | - | - | - |
| 1777926377 | 6.67° C | 61% | 906.2 hPa | 0 mm | - | - | - |
| 1777925777 | 6.67° C | 62% | 906 hPa | 0 mm | - | - | - |
| 1777925176 | 6.11° C | 66% | 905.7 hPa | 0 mm | - | - | - |
| 1777924576 | 6.11° C | 71% | 905.6 hPa | 0 mm | - | - | - |
| 1777923975 | 5.56° C | 76% | 905.2 hPa | 0 mm | - | - | - |
| 1777923375 | 5° C | 79% | 904.9 hPa | 0 mm | - | - | - |
| 1777922774 | 5.56° C | 79% | 904.7 hPa | 0 mm | - | - | - |
| 1777922174 | 5.56° C | 79% | 904.6 hPa | 0 mm | - | - | - |
| 1777921573 | 5.56° C | 79% | 904.4 hPa | 0 mm | - | - | - |
| 1777920973 | 5.56° C | 79% | 904.1 hPa | 0 mm | - | - | - |
* Rain since midnight (hover to see other rain measurements)
** Current wind speed in m/s (hover to see current wind gust speed)